Terminal Aerodrome Forecast
Issued by NWS

Home | Current Version | Previous Version | Text Only | Print | Product List | Glossary On
Versions: 1 2 3 4 5 6 7 8 9 10 11 12 13 14
724
FTUS41 KAKQ 241425 AAA
TAFPHF
TAF AMD
KPHF 241425Z 2414/2512 27013G20KT P6SM FEW035
     FM241700 25009KT P6SM SCT060
     FM242300 23007KT P6SM BKN080
     FM250800 30006KT P6SM SCT150=

USA.gov is the U.S. government's official web portal to all federal, state and local government web resources and services.